Location: Newark
(42.8270°N, 8.3618°W)
Time: 21:16:19
(UTC+00:00)

N. Korean satellite - Visible Passes

Search period start: 27 September 2020 00:00
Search period end: 07 October 2020 00:00
Orbit: 455 x 503 km, 97.2° (Epoch: 27 September)

Date Brightness Start Highest point End Pass type
(mag) Time Alt. Az. Time Alt. Az. Time Alt. Az.
28 Sep 8.7 05:37:15 10° NNE 05:40:32 31° E 05:43:43 10° SSE visible
29 Sep 9.8 05:12:06 10° NE 05:14:19 15° E 05:16:30 10° SE visible
01 Oct 7.7 05:52:17 10° NNE 05:55:48 49° E 05:59:13 10° S visible
02 Oct 9.3 05:26:43 10° NE 05:29:39 23° E 05:32:30 10° SSE visible
03 Oct 10.2 05:02:13 10° ENE 05:03:23 11° E 05:04:32 10° ESE visible
05 Oct 8.4 05:41:35 10° NNE 05:44:54 35° E 05:48:07 10° SSE visible
06 Oct 9.7 05:16:17 10° NE 05:18:41 17° E 05:21:03 10° SE visible
